Vorticity
nan nan nan nan nan nan nan nan nan nan nan nan nan nan nan nan nan nan nan nan nan nan nan nan nan nan nan nan nan nan nan nan nan nan nan nan nan nan nan nan nan nan nan nan
nan 9 9 11 17 28 20 10 9 10 15 10 9 9 8 9 10 10 11 10 9 11 12 11 10 9 5 9 17 15 10 7 8 10 6 10 9 11 9 8 12 6 4 nan
nan 8 10 12 16 25 22 10 9 7 13 12 12 9 9 7 8 10 9 11 12 10 7 11 12 7 6 9 9 15 14 7 10 5 3 9 9 7 8 6 2 11 6 nan
nan 8 9 11 16 28 23 10 11 9 9 9 10 9 10 9 5 5 12 12 7 12 10 10 9 7 9 7 8 12 12 12 12 11 9 6 8 6 7 8 3 5 5 nan
nan 9 9 9 19 31 23 11 9 8 8 9 6 9 13 10 6 10 13 7 6 12 11 6 4 6 8 6 8 8 10 12 9 8 13 9 5 9 9 9 15 12 10 nan
nan 8 10 9 20 32 17 10 10 7 10 13 11 9 9 7 10 10 5 6 11 12 5 4 10 9 6 6 5 7 10 11 8 6 6 8 17 15 11 13 16 17 14 nan
nan 8 10 10 16 26 17 10 10 12 12 10 12 9 9 8 9 8 4 11 12 4 9 17 14 12 11 9 8 6 7 7 6 10 9 6 10 17 16 14 10 12 10 nan
nan 8 9 11 10 19 20 11 10 13 10 11 10 8 10 10 12 12 9 8 7 9 16 15 11 10 15 15 14 15 11 6 8 16 7 11 19 13 11 11 9 14 6 nan
nan 9 8 11 9 17 18 11 11 12 11 9 8 10 9 11 13 12 10 7 10 15 14 11 12 9 12 14 10 16 18 11 10 9 8 9 14 10 11 12 16 7 3 nan
nan 9 8 8 12 17 17 9 11 12 11 10 7 7 10 11 9 9 9 9 14 14 15 11 12 8 11 13 11 8 6 12 11 6 8 5 6 10 13 9 7 5 9 nan
nan 10 9 8 10 16 18 10 9 11 11 12 12 8 7 7 8 8 13 14 9 11 12 12 11 11 9 11 11 16 10 7 11 11 13 9 10 13 1 8 9 8 9 nan
nan 10 9 9 10 13 17 12 9 12 11 10 12 11 11 10 8 9 6 11 11 11 11 11 11 10 9 11 12 11 12 11 14 10 10 12 4 2 4 12 11 10 8 nan
nan 10 10 10 8 12 15 12 11 11 12 12 12 13 13 16 10 4 6 10 11 9 8 11 11 11 11 10 8 7 11 11 6 8 4 -5 1 8 10 5 6 10 9 nan
nan 10 11 11 10 11 13 13 12 12 9 11 10 6 11 14 19 13 4 3 8 8 10 11 10 13 10 8 10 8 6 3 6 6 1 2 8 6 5 4 9 11 8 nan
nan 11 13 10 9 14 16 14 11 8 9 10 7 13 15 14 14 11 12 7 5 9 11 10 9 10 11 10 11 14 12 7 5 6 8 11 9 4 6 10 10 9 7 nan
nan 13 12 9 9 17 18 12 12 12 8 9 10 14 10 11 13 14 15 15 12 10 10 10 10 8 11 10 7 7 9 12 9 10 11 10 10 15 15 12 9 10 12 nan
nan 13 11 10 14 13 9 10 7 11 13 10 10 11 11 12 14 14 15 12 10 11 11 11 10 13 11 10 9 7 10 13 14 14 14 13 12 7 7 13 15 14 14 nan
nan 9 11 14 16 13 13 16 14 7 10 9 11 12 10 12 14 10 11 12 11 11 8 13 14 14 10 9 15 14 12 13 12 12 14 9 4 7 10 10 10 11 13 nan
nan 18 16 17 14 13 14 16 15 8 9 12 10 11 10 11 13 12 10 11 11 10 12 11 11 11 10 10 5 4 11 12 10 10 10 12 11 11 12 11 11 10 10 nan
nan 20 15 10 11 15 10 7 8 11 10 11 9 10 10 10 10 12 11 11 11 11 13 11 12 9 15 14 3 3 9 11 14 13 11 10 11 12 12 13 13 13 9 nan
nan 9 10 9 13 11 9 11 12 11 11 12 11 10 11 11 8 10 12 10 12 11 11 11 12 11 7 8 4 5 12 14 13 16 16 12 10 9 10 12 13 13 12 nan
nan 12 11 12 13 12 11 12 12 9 12 12 11 14 12 9 11 12 10 10 11 9 9 12 8 3 4 9 8 10 12 12 15 15 16 15 10 11 13 12 14 12 12 nan
nan 12 12 11 9 11 14 10 8 12 13 12 11 10 12 12 11 11 11 13 9 11 12 12 13 7 5 5 9 13 14 13 10 12 13 11 12 16 17 17 14 15 15 nan
nan 11 11 11 9 11 11 9 9 12 14 13 11 11 10 12 12 11 11 10 11 12 12 11 11 9 8 9 9 11 11 10 13 17 14 12 14 15 22 27 22 18 12 nan
nan 11 12 11 8 10 12 11 10 12 13 12 10 12 12 10 11 9 11 13 11 12 10 11 8 7 10 10 10 11 10 10 17 19 14 11 13 16 23 28 26 19 13 nan
nan 10 11 10 10 12 12 11 10 14 13 10 12 11 11 12 12 13 11 11 11 11 12 9 8 9 10 9 11 12 10 11 14 14 14 13 11 17 22 19 15 15 17 nan
nan nan nan nan nan nan nan nan nan nan nan nan nan nan nan nan nan nan nan nan nan nan nan nan nan nan nan nan nan nan nan nan nan nan nan nan nan nan nan nan nan nan nan nan
CAPE
3 1 0 0 0 0 0 0 0 0 0 0 0 0 0 0 0 0 0 0 0 0 0 0 0 0 0 0 0 0 0 0 0 0 0 0 0 0 0 0 0 0 0 0
1 0 0 1 0 0 0 0 0 0 0 0 0 0 0 0 0 0 0 0 0 0 0 0 0 0 0 0 0 0 0 0 0 0 0 0 0 0 0 0 0 0 0 0
1 1 1 0 0 0 0 0 0 0 0 0 0 0 0 0 0 0 0 0 0 0 0 0 0 0 0 0 0 0 0 0 0 0 0 0 0 0 0 0 0 0 0 0
1 2 2 1 1 0 0 0 0 0 0 0 0 0 0 0 0 0 0 0 0 0 0 0 0 0 0 0 0 0 0 0 0 0 0 0 0 0 0 0 0 0 0 0
1 1 3 1 1 0 0 0 0 0 0 0 0 0 0 0 0 0 0 0 0 0 0 0 0 0 0 0 0 0 0 0 0 0 0 0 0 0 0 0 0 0 0 0
1 1 4 1 0 0 0 2 0 0 0 0 0 0 0 0 0 0 0 0 0 0 0 0 0 0 0 0 0 0 0 0 0 0 0 0 0 0 0 0 0 0 0 0
1 1 1 1 0 0 0 3 0 0 0 0 0 0 0 0 0 0 0 0 0 0 0 0 0 0 0 0 0 0 0 0 0 0 0 0 0 0 0 0 0 0 0 0
1 1 1 3 1 0 0 3 0 0 0 0 0 0 0 0 0 0 0 0 0 0 0 0 0 0 0 0 0 0 0 0 0 0 0 0 0 0 0 0 0 0 0 0
2 1 2 2 0 0 0 2 0 0 0 0 0 0 0 0 0 0 0 0 0 0 0 0 0 0 0 0 0 0 0 0 0 0 0 0 0 0 0 0 0 0 0 0
1 2 2 1 2 0 0 0 0 0 0 0 0 0 0 0 0 0 0 0 0 0 0 0 0 0 0 0 0 0 0 0 0 0 0 0 0 0 0 10 0 0 0 0
1 3 2 4 5 2 1 0 0 0 2 0 0 0 0 0 0 0 0 0 0 0 0 0 0 0 0 0 0 0 0 0 0 0 0 0 0 0 0 0 0 0 0 4
2 2 4 2 8 1 0 0 0 2 10 0 0 0 0 0 0 0 0 0 0 0 0 0 0 0 0 0 4 0 17 2 26 19 0 0 0 0 0 0 0 1 29 13
4 2 5 8 11 4 2 3 6 2 3 0 0 0 0 0 0 0 0 0 0 0 0 2 14 17 0 5 6 5 13 18 55 42 23 1 0 0 0 0 0 0 19 5
12 4 9 6 4 6 2 1 5 9 7 1 0 0 0 0 0 0 0 0 0 0 0 8 34 31 1 6 4 7 2 3 1 10 4 0 0 0 0 0 0 0 0 0
11 13 14 5 3 3 3 5 1 2 3 2 0 0 0 0 0 0 0 0 0 0 0 33 29 16 22 23 19 16 8 6 38 29 17 13 0 0 0 0 0 0 0 0
16 15 10 5 0 0 1 0 0 0 6 3 1 0 0 0 0 0 0 0 0 0 0 0 0 0 44 56 19 6 6 6 11 25 11 3 0 0 0 0 0 0 0 0
12 14 7 3 2 2 0 0 1 0 3 9 5 0 0 0 0 0 0 0 0 0 1 17 12 18 71 67 39 12 32 29 13 31 73 57 48 25 0 0 1 1 0 0
6 2 2 1 0 0 0 0 0 0 5 2 4 0 0 0 0 0 0 4 7 20 42 16 34 44 54 63 19 16 7 8 11 18 20 27 27 6 0 0 3 4 8 31
1 3 3 0 0 0 2 0 0 2 5 34 11 0 0 0 0 0 0 0 32 5 57 105 93 37 92 57 24 8 5 4 11 14 22 41 59 31 9 0 0 0 2 72
0 1 1 18 5 0 3 10 21 17 34 24 5 0 0 0 0 0 3 9 37 33 26 24 84 24 25 38 34 5 14 25 39 56 34 63 68 57 48 36 18 14 0 17
0 0 9 0 0 2 3 41 12 7 7 3 1 1 0 0 0 11 3 50 22 28 44 92 77 231 142 59 40 30 19 38 44 58 53 50 55 42 61 46 32 32 26 24
3 4 1 0 1 2 35 40 13 7 0 0 0 1 4 1 0 54 46 58 41 26 64 100 53 184 52 39 11 0 13 54 35 48 61 53 42 56 60 65 52 21 48 41
3 1 5 14 23 5 32 0 5 3 0 0 0 14 2 1 3 35 32 39 37 67 144 133 177 237 9 26 22 0 8 31 32 37 40 40 34 48 62 48 27 15 66 34
0 2 0 21 9 5 0 0 0 0 0 0 0 43 2 4 6 2 38 71 111 73 17 44 308 84 43 52 8 16 19 18 19 14 24 33 41 33 5 51 51 43 57 76
0 5 0 1 0 0 0 0 0 1 0 1 0 0 1 2 29 5 1 51 72 2 16 165 179 92 48 35 0 10 10 11 4 15 29 54 21 4 6 56 31 34 122 205
0 1 0 1 1 0 0 0 7 2 1 0 0 0 17 35 18 8 30 5 2 113 216 87 3 32 67 9 0 0 6 3 16 54 19 22 11 2 28 42 158 176 218 307
0 0 1 0 0 0 0 0 6 0 0 36 11 51 21 0 12 6 5 44 114 53 34 5 2 0 2 0 0 0 1 2 7 20 3 22 47 4 2 21 70 31 21 28